Address 0xcb34f8c36e8a67fdabca3264b8b6a3661921253c 3

 
 
Txn Hash Method
Block
From
To
Value [Txn Fee]
0xad9b9c62655edd6dcec9205a9e7725def22b25baf4dbf7c30538dbb1bb862815Mint255001842022-03-02 16:15:09163 days 20 hrs ago0xcb34f8c36e8a67fdabca3264b8b6a3661921253cOUT 0x5b54c77998bfd48882da9b0cc1671810f45f3bb00.3 MATIC0.002390867236 30.119264756
0x63d0f95f73f091a9ae7fa530ca6526e903429faa408ce7c6e9b17ce6d170b63aMint251512222022-02-20 10:55:54174 days 1 hr ago0xcb34f8c36e8a67fdabca3264b8b6a3661921253cOUT 0x36ae18805e65f4eef486597a99bd2af0b70fd9f40 MATIC0.003629588171 30.771999997
0xfc4732148103697eccdef1981a43f144cda47c522267bc010e1a8c4d85aeaed7Mint251512102022-02-20 10:55:30174 days 1 hr ago0xcb34f8c36e8a67fdabca3264b8b6a3661921253cOUT 0x36ae18805e65f4eef486597a99bd2af0b70fd9f40 MATIC0.002716714937 32.437999999
0x1dcece8fe5244175d6aeae23c10dff850acf87ed013d42501cb96e205b681ca6Mint251511992022-02-20 10:55:08174 days 1 hr ago0xcb34f8c36e8a67fdabca3264b8b6a3661921253cOUT 0x36ae18805e65f4eef486597a99bd2af0b70fd9f40 MATIC0.002577001159 30.769795701
0xe44ab0eeeaaf32d4e830c440e280406899abdda6143c923725d52140f971a2f2Mint251511622022-02-20 10:53:50174 days 1 hr ago0xcb34f8c36e8a67fdabca3264b8b6a3661921253cOUT 0x36ae18805e65f4eef486597a99bd2af0b70fd9f40 MATIC0.00393012732 33.320000002
0x703892c9fdfb6273f473c4c4ce6e7b83c1cb994d97c169bf94be2aacd187afbaUnpause251495992022-02-20 9:55:31174 days 2 hrs ago0xcb34f8c36e8a67fdabca3264b8b6a3661921253cOUT 0x36ae18805e65f4eef486597a99bd2af0b70fd9f40 MATIC0.000774700329 32.544964256
0xc92c2478af2e76ac2ec2cb60c8622a5fb426334d321dc91051d21f9d6ec9ff65Set Approval For...250404852022-02-17 7:39:23177 days 4 hrs ago0xcb34f8c36e8a67fdabca3264b8b6a3661921253cOUT 0x36ae18805e65f4eef486597a99bd2af0b70fd9f40 MATIC0.001403078496 30.06188795
0x4e3d86c8c1accc736fe37bbfe4bd786d4fb6a88694cf02d732eb0f85572ee7a0Pause242659332022-01-28 12:59:19196 days 23 hrs ago0xcb34f8c36e8a67fdabca3264b8b6a3661921253cOUT 0x36ae18805e65f4eef486597a99bd2af0b70fd9f40 MATIC0.001439374646 31.493406402
0x6fdf76b3b2aef59f2bb6d7ba3d7f27b7969cb776268f1bc9a5a3b13a2cbcf760Mint242650022022-01-28 12:24:27197 days 3 mins ago0xcb34f8c36e8a67fdabca3264b8b6a3661921253cOUT 0x36ae18805e65f4eef486597a99bd2af0b70fd9f40 MATIC0.003421665303 29.100000026
0xfbc770bdc7ab0b142500d128f85eb472036f2d34af053abd792e683ecc29d410Mint242649682022-01-28 12:22:11197 days 6 mins ago0xcb34f8c36e8a67fdabca3264b8b6a3661921253cOUT 0x36ae18805e65f4eef486597a99bd2af0b70fd9f40 MATIC0.003000965412 29.810815986
0x71b9fe64777e3c0e6ab5ba6afdf7ca2cc5e8427a4fe68365b529f6aad038c2e6Mint242643342022-01-28 11:58:27197 days 29 mins ago0xcb34f8c36e8a67fdabca3264b8b6a3661921253cOUT 0x36ae18805e65f4eef486597a99bd2af0b70fd9f40 MATIC0.003224760949 31.975498007
0xef4b6255afe815ffe7b20455ee328f8dbee48ac4efa3798ed661af297fd4d088Mint242630282022-01-28 11:10:05197 days 1 hr ago0xcb34f8c36e8a67fdabca3264b8b6a3661921253cOUT 0x36ae18805e65f4eef486597a99bd2af0b70fd9f40 MATIC0.000342702029 2.910000504
0x8014523a167ca7d2154731a1754fc3604b42e734968ae19734dc00e1a656719eMint242630022022-01-28 11:09:13197 days 1 hr ago0xcb34f8c36e8a67fdabca3264b8b6a3661921253cOUT 0x36ae18805e65f4eef486597a99bd2af0b70fd9f40 MATIC0.003313562299 29.284427884
0x3398a20b6c4de935002f25e2cdb6e8449548e2272906914cfe46d91e022165f90x60806040242625652022-01-28 10:53:19197 days 1 hr ago0xcb34f8c36e8a67fdabca3264b8b6a3661921253cOUT Create: ShadowVoid0 MATIC0.1158518285 30.419200291
0xc8aea2c4625e0365609fed1cf6300078b6791a5bac99883d4195fa44a6639057Withdraw242622492022-01-28 10:41:08197 days 1 hr ago0xcb34f8c36e8a67fdabca3264b8b6a3661921253cOUT 0xb2f741262326b9585fd892139bb3018b271a6c8e0 MATIC0.000885455024 28.791540103
0x3eed06201ba5956465161297e0b38bca8a100a10fd174f0ac8d00f21d3c35641Mint242366122022-01-27 19:16:49197 days 17 hrs ago0xcb34f8c36e8a67fdabca3264b8b6a3661921253cOUT 0xb2f741262326b9585fd892139bb3018b271a6c8e0 MATIC0.005348740867 30.42947443
0x79d029fe0bc81f2017bd7f4fede1bbc13d522279a4388d844bc361e1a59e2c2cMint242366062022-01-27 19:16:33197 days 17 hrs ago0xcb34f8c36e8a67fdabca3264b8b6a3661921253cOUT 0xb2f741262326b9585fd892139bb3018b271a6c8e0 MATIC0.00562480993 32.000056494
0x7c4e0b2eb78b3808ed7fc00ae13852b3a2f9fec35b72789236fcf886ff6ce9a3Mint242365632022-01-27 19:15:07197 days 17 hrs ago0xcb34f8c36e8a67fdabca3264b8b6a3661921253cOUT 0xb2f741262326b9585fd892139bb3018b271a6c8e0 MATIC0.007031031341 40.000178305
0x9f16acc580db99f34629979f1d7c8d8c28f20d0e958405d7474e4163e3464046Mint242365442022-01-27 19:14:29197 days 17 hrs ago0xcb34f8c36e8a67fdabca3264b8b6a3661921253cOUT 0xb2f741262326b9585fd892139bb3018b271a6c8e0 MATIC0.006919045551 40.00026334
0x13b816252d3879c35df1dedd60ee90739859466dad2b049b109d0ce526f19827Pause242362072022-01-27 19:00:43197 days 17 hrs ago0xcb34f8c36e8a67fdabca3264b8b6a3661921253cOUT 0xb2f741262326b9585fd892139bb3018b271a6c8e0 MATIC0.0010881 45
0xbb9d285b69db3c9f92b21b0fa89b27f384903e5a1b44a269e169fdb22f0066d3Transfer242239202022-01-27 11:36:47198 days 51 mins ago0xcb34f8c36e8a67fdabca3264b8b6a3661921253cOUT Wrapped Ether0 MATIC0.000907126382 30.167156048
0xe5fd8d7fef70a1e26400650020115b66816b75a434ad797697e0fa49c2abe55aSet Approval For...241892582022-01-26 14:35:58198 days 21 hrs ago0xcb34f8c36e8a67fdabca3264b8b6a3661921253cOUT 0x490d7e3c011b446e35e24e5f5d1544c04bd4b3d60 MATIC0.007935309953 171.526056541
0xb6837ed7d9454aadf9096e094ba3c00eb8d1d4c2ca971f8fa89566bc79f64935Mint240671462022-01-23 13:39:26201 days 22 hrs ago0xcb34f8c36e8a67fdabca3264b8b6a3661921253cOUT 0xf0f53a35aa4f1868fe3ccceb18a1902c41fddd4b0 MATIC0.025136161246 172.177280953
0xfe2f8d64e98d0e660cc8d84b2a216076f67b83f7ec3b72d13e78da377ab03617Set Approval For...240337412022-01-22 17:24:59202 days 19 hrs ago0xcb34f8c36e8a67fdabca3264b8b6a3661921253cOUT 0xb2f741262326b9585fd892139bb3018b271a6c8e0 MATIC0.015345984888 328.790866183
0x42a4ce9f398d40c3573d9165ec7f63ca4bbafcf2fe22a584f4ae5d161a4d1a17Pause236738382022-01-13 14:12:19211 days 22 hrs ago0xcb34f8c36e8a67fdabca3264b8b6a3661921253cOUT 0xb2f741262326b9585fd892139bb3018b271a6c8e0 MATIC0.00152103633
[ Download CSV Export 
Latest 1 internal transaction
Parent Txn Hash Block From To Value
0xc8aea2c4625e0365609fed1cf6300078b6791a5bac99883d4195fa44a6639057242622492022-01-28 10:41:08197 days 1 hr ago 0xb2f741262326b9585fd892139bb3018b271a6c8e0xcb34f8c36e8a67fdabca3264b8b6a3661921253c2.0021 MATIC
[ Download CSV Export 
Loading

Contract Name:
0 MATIC

Compiler Version
0

Optimization Enabled:
0 MATIC

Other Settings:
-NA-
Block Transaction Gas Used Reward
Age Block Fee Address BC Fee Address Voting Power Jailed Incoming
Block Uncle Number Difficulty Gas Used Reward
Loading
Loading
Make sure to use the "Vote Down" button for any spammy posts, and the "Vote Up" for interesting conversations.